Location: Unspecified
(51.5147°N, 7.4673°E)
Time: 08:26:28
(UTC+01:00)

Explorer 7 - Pass Details

Date: 24 February 2026
Orbit: 430 x 542 km, 50.2° (Epoch: 7 March)

Event Time Altitude Azimuth Distance (km) Brightness Sun altitude
Rises 14:53:50 0° 252° (WSW) 2,413 10.9 23.0°
Reaches altitude 10° 14:55:56 10° 249° (WSW) 1,557 10.2 22.8°
Maximum altitude 14:59:23 63° 169° (S) 509 7.3 22.5°
Drops below altitude 10° 15:02:59 10° 88° (E) 1,612 8.9 22.1°
Sets 15:05:11 0° 85° (E) 2,509 9.8 21.9°
